Погода Тивяку

Погода Тивяку : погода сейчас, прогноз погоды и архив. Всё, что Вы хотите узнать о погоде Тивяку!

Хотите узнать прогноз погоды Тивяку? Тогда Вам сюда: Погода Тивяку

Поиск расширенной информации на нашем сайте:

Другие новости

Новости СМИ2

Главная страница сайта

Новости сайта

03.07.2017

Напоминаем, что на нашем специализированном сайте Метеоцентр.Азия вы можете получить высокодетализированные автоматические прогнозы погоды по пунктам России, СНГ и мира в авиационном формате (включающие направление и скорость ветра, видимость, явления погоды, количество и форму облачности, нижнюю и верхнюю границу облачности).


Погода Тивяку - сегодня

Время (UTC), дата Ветер
(°,м/с) 
Видим.   Явления Облачность Т
(°С)
Тd
(°С)
f(%) Тe
(°С)
Pmin
(гПа)
dP
(гПа)
Po
(мм)
O2
(г/м3)
Тmin Tmax R s Состояние
почвы
03 18.02.18 270 (З) 20000 м    ясно 
-13.3 -22.7 45 -13  1020.3  -1.5  726  309           
06 18.02.18 230 (ЮЗ) 20000 м    ясно 
-11.6 -24 35 -11  1018.8  -1.1  725  307           
09 18.02.18 270 (З) 20000 м    ясно 
-17.6 -23.7 59 -18  1020.7  0.6  725  314    -11.6       
12 18.02.18 тихо ()   20000 м    ясно 
-23.5 -27.1 72 -24  1022.4  0.4  726  322           
15 18.02.18 220 (ЮЗ) 20000 м    ясно 
-28.1 -31.2 75 -29  1023  -0.4  725  328           
18 18.02.18 тихо ()   20000 м    ясно 
-32.2 -35.3 74 -32  1022.5  -1  725  333           
00 19.02.18 тихо ()   20000 м    8/0 средняя, верхняя 
[Ac trans|Cs]
-23.2 -28.9 59 -23  1018  -1.1  723  320  -34.9         
03 19.02.18 220 (ЮЗ) 20000 м    8/3 600 м верхняя 
[Sc|Cs]
-13.2 -22.8 44 -15  1013.9  -1.8  721  307           
06 19.02.18 250 (З) 20000 м    9/5 600 м кучево-дожд., верхняя 
[Cb cap|Cs]
-12.7 -21.6 47 -15  1013  -0.8  721  306           
12 19.02.18 180 (Ю) 20000 м  слаб. снег  10/0 верхняя 
[Cs]
-17.2 -20.4 76 -17  1015  721  312           
15 19.02.18 200 (Ю) 20000 м  слаб. снег  10/0 верхняя 
[Cs]
-19.9 -21.8 85 -20  1014.3  -1.2  721  315           
18 19.02.18 тихо ()   20000 м  {снег}  10/0 верхняя 
[Cs]
-24.1 -26.6 80 -24  1014.7  -0.6  720  320           
00 20.02.18 020 (С) 20000 м    3/0 верхняя 
[Ci fib]
-22.6 -26.6 70 -23  1013.6  0.1  720  318  -32.4         
03 20.02.18 230 (ЮЗ) 20000 м    10/5 600 м кучево-дожд., верхняя 
[Cb cap|Ci fib]
-15.9 -25.1 45 -18  1011.7  -0.4  719  309           
06 20.02.18 250 (З) 20000 м    10/5 600 м кучево-дожд., средняя 
[Cb cap|As op]
-15.8 -22 59 -18  1011.8  -0.1  719  309           
12 20.02.18 170 (Ю) 20000 м    3/3 600 м кучево-дожд. 
[Cb cap]
-21.1 -23.4 82 -21  1016.1  2.1  722  317           
15 20.02.18 тихо ()   20000 м    10/0 верхняя 
[Cs]
-25.6 -28.2 79 -26  1016.5  -0.6  721  322           
18 20.02.18 тихо ()   20000 м    6/0 верхняя 
[Ci fib]
-29.7 -32.8 74 -30  1017.2  -0.2  721  328           
00 21.02.18 тихо ()   20000 м    ясно 
-20 -23.8 72 -20  1015.5  0.3  722  315  -34.3         
03 21.02.18 240 (ЮЗ) 20000 м    10/3 600 м верхняя 
[Sc|Cs]
-15.9 -26.2 41 -18  1014.3  -0.6  721  310           
06 21.02.18 260 (З) 2{10}  20000 м    3/3 600 м 
[Sc]
-14.1 -26.3 35 -16  1013.6  -0.2  721  308           
09 21.02.18 260 (З) 20000 м    ясно 
-18.6 -26.6 49 -19  1016.1  1.4  722  314    -14       
12 21.02.18 тихо ()   20000 м    ясно 
-27.2 -30.4 74 -27  1019.5  1.5  723  325           
15 21.02.18 тихо ()   20000 м    ясно 
-32.2 -35.2 75 -32  1020.8  723  332           
18 21.02.18 тихо ()   20000 м    ясно 
-35.3 -38.7 71 -35  1021.2  723  336           
Время (UTC), дата Ветер
(°,м/с) 
Видим.   Явления Облачность Т
(°С)
Тd
(°С)
f(%) Тe
(°С)
Pmin
(гПа)
dP
(гПа)
Po
(мм)
O2
(г/м3)
Тmin Tmax R s Состояние
почвы

Для получения пояснительной информации подведите курсор к названию столбца.

ПОГОДА Тивяку - архив

Всё, что Вы хотите узнать о погоде Тивяку - удобно и подробно!

Выберите нужную дату (начиная с 1 января 2015* года) и нажмите кнопку "Найти".
Будут отображены архивные сводки погоды по пункту Тивяку, начиная с указанной даты.


Отображать данные в формате CSV (для использования в таблицах Excel)


Внимание! Наш архив погоды предназначен исключительно для личного некоммерческого использования в познавательных целях. Если Вам необходимы официальные справки о состоянии погоды (для производственных, юридических, коммерческих и т.п. целей), обращайтесь в органы Росгидромета.

*Примечание: данная дата относится к архиву по метеостанциям СССР (Россия, СНГ, Балтия).
Архив по метеостанциям Зарубежной Европы и Азии (кроме Китая) хранится 10 дней, по другим регионам земного шара (Китай, Африка, Америка, Австралия, Океания) - 1 день.

Тивяку - район местоположения метеостанции


Название, широта, долгота, высота метеостанции:
Тивяку 48.6°ш. 137.1°д. 403 м над ур. моря [Российская Федерация]

Дополнительная информация

В oтличие oт бoльшинства пoгoдных сайтoв мы публикуем пoдрoбную метеoинфoрмацию в детальнoм прoфессиoнальнoм фoрмате.

Характеристики температуры и влажнoсти вoздуха измеряются на высoте 2 м в тени вдали oт зданий и деревьев.
Скoрoсть ветра измеряется на высoте 10 м (на урoвне рoста челoвека скoрoсть ветра ниже в 1.5-2 раза). Если метеoстанция нахoдится в гoрoде или в лесу, тo скoрoсть ветра занижена на 2-4 м/с пo сравнению с oткрытым местoм. Скoрoсть ветра над акватoриями крупных рек и oзёр, а также на вершинах хoлмoв на 2-5 м/с выше, чем в oбычных услoвиях.
Атмoсфернoе давление в разных тoчках местнoсти мoжет значительнo oтличаться oт давления на метеoстанции, в зависимoсти oт услoвий рельефа (при пoдъёме на 10 м давление пoнижается примернo на 1 мм рт.ст.).